Theta_e
318 316 313 312 311 312 314 316 315 315 315 314 316 315 314 313 312 314 317 318 318 317 316 316 316 316 316 315 315 313 312 311 312 313 313 311 310 307 305 304 303 302
317 315 314 313 313 314 316 316 316 315 314 314 314 313 312 311 310 310 313 314 314 313 312 312 312 314 314 313 310 307 307 308 309 309 307 305 304 302 301 301 300 300
317 316 315 315 315 315 316 316 316 316 315 313 312 313 312 311 309 308 309 310 309 307 305 305 307 309 309 307 304 304 305 306 306 305 303 301 300 300 300 299 300 300
317 316 314 313 313 313 312 314 317 316 314 312 310 312 313 312 310 308 309 308 307 303 302 301 302 303 303 303 302 303 304 304 304 303 302 302 301 301 301 300 301 303
317 316 314 312 312 311 311 312 315 316 314 312 309 309 311 312 310 309 309 309 308 306 304 303 302 301 303 303 302 302 303 303 304 303 303 304 303 303 303 303 304 304
317 316 315 313 311 312 314 312 313 316 315 313 310 307 308 310 310 310 309 310 310 309 309 307 304 303 304 305 305 304 303 303 303 303 304 304 304 303 303 304 305 306
317 316 316 314 311 312 314 312 313 316 316 314 312 308 307 308 308 309 310 310 310 311 311 311 309 306 306 307 308 308 306 305 304 304 304 304 304 303 303 303 305 305
317 317 317 315 313 313 313 313 314 316 317 315 313 310 308 308 307 308 310 310 311 311 311 312 311 310 308 308 309 309 309 308 307 306 306 306 305 304 304 304 304 304
316 317 317 316 315 314 315 315 316 317 317 316 314 312 310 309 308 307 309 310 310 311 311 312 312 311 310 309 308 309 310 310 309 308 308 308 307 307 306 305 305 305
315 316 316 315 314 315 317 318 317 317 317 317 316 314 312 311 310 309 309 310 311 310 311 311 311 311 311 310 309 309 309 310 310 310 309 309 309 309 308 307 307 306
316 315 314 314 314 314 316 318 318 317 318 317 317 316 314 312 311 310 310 311 311 311 310 310 310 310 311 311 310 310 310 310 310 310 310 310 310 310 309 309 308 308
316 314 314 313 313 314 315 316 318 318 317 318 317 317 316 314 312 311 311 311 312 312 311 311 312 312 312 311 311 312 312 312 312 311 311 311 310 310 310 310 310 309
315 314 314 314 314 314 315 316 317 317 317 317 317 317 316 315 313 312 312 312 313 313 313 313 314 314 314 314 314 314 314 315 315 314 312 311 311 311 311 311 310 310
315 315 315 316 315 315 315 316 316 317 317 317 317 316 316 316 315 313 313 314 314 314 314 314 314 315 315 314 314 315 315 316 317 316 315 314 313 314 314 315 313 312
317 316 316 315 315 314 315 315 316 316 317 317 317 317 316 315 314 314 314 314 315 315 315 314 314 314 314 314 314 315 316 316 316 316 316 316 315 316 315 315 315 315
317 316 315 315 315 315 315 316 316 317 317 317 317 316 316 315 315 315 315 315 315 314 315 314 314 313 312 313 314 314 315 316 316 316 316 316 316 316 315 315 315 315
318 317 317 316 316 316 317 317 317 318 318 317 317 316 315 315 315 315 315 315 315 314 314 314 314 312 311 312 313 314 315 316 316 316 316 316 316 317 317 317 317 317
318 318 317 318 317 317 318 318 317 317 317 317 316 316 316 315 315 315 316 316 316 314 314 314 313 312 311 312 313 315 315 313 311 310 310 311 313 314 315 316 317 317
318 318 318 318 318 318 318 318 317 317 316 316 316 316 316 316 316 316 316 316 316 315 314 314 314 312 311 312 314 314 311 308 306 307 309 311 312 313 315 315 315 315
316 317 318 318 318 318 318 318 317 316 316 316 316 317 316 316 316 316 316 316 316 315 315 315 314 312 312 314 314 311 307 306 307 308 310 311 311 312 313 313 313 314
312 315 317 318 317 317 318 318 317 317 317 317 316 316 316 316 316 316 316 315 315 314 315 314 312 312 314 314 312 308 307 307 307 307 307 308 309 310 310 311 311 312
307 311 314 317 317 317 317 317 317 316 316 317 316 317 317 316 316 316 316 315 314 315 315 314 313 315 315 312 310 308 308 307 307 307 307 307 308 308 309 309 310 310
304 306 309 313 316 317 317 317 317 316 316 316 315 316 316 316 316 316 316 315 315 315 315 315 316 316 314 311 310 309 308 308 308 308 307 307 307 307 307 307 308 308
303 304 306 308 311 314 315 315 316 316 316 315 315 315 315 315 315 316 316 316 316 316 316 316 316 314 312 310 310 309 308 308 308 307 307 307 307 306 306 306 306 306
303 304 305 306 307 310 313 313 314 315 315 315 315 315 315 315 315 315 316 316 315 315 316 316 314 312 311 311 310 310 308 308 308 308 307 307 306 305 305 304 304 304
302 303 304 305 306 308 311 312 314 314 315 316 316 316 316 316 316 316 316 315 315 315 315 314 312 311 311 311 310 310 309 308 308 308 307 306 305 304 303 303 302 302
Wind_Speed
15 13 12 11 9 8 8 7 7 7 7 8 8 7 7 6 4 4 5 5 4 4 5 6 8 9 10 10 9 10 12 12 13 13 13 12 12 12 12 12 13 14
17 15 14 13 11 10 9 7 7 7 6 7 7 6 6 5 4 4 5 5 4 4 5 6 8 9 9 8 8 9 11 12 13 12 12 12 13 13 13 13 13 14
16 14 13 12 11 9 7 8 9 8 6 6 6 5 5 4 4 5 6 5 5 5 6 6 7 7 7 7 9 10 12 12 12 12 13 13 13 13 13 14 14 16
16 13 11 13 13 9 6 8 10 9 8 6 5 6 6 5 4 5 6 6 6 6 6 7 7 7 8 8 9 11 12 12 12 12 13 13 13 13 14 14 15 16
15 14 13 13 15 11 5 6 8 9 10 8 6 6 7 7 6 5 6 6 6 7 7 7 7 8 8 8 9 10 11 11 11 11 11 12 12 12 13 13 14 15
18 19 17 14 15 13 7 10 10 10 12 10 8 7 7 8 8 6 6 6 6 6 6 6 6 6 7 7 8 9 9 10 10 10 10 10 10 10 10 11 11 12
22 24 21 16 15 14 14 16 14 10 12 13 11 9 7 7 9 8 8 7 6 5 5 5 4 5 5 5 6 6 7 8 8 8 8 9 9 9 9 10 10 9
22 23 22 18 16 15 18 19 14 12 14 15 14 13 10 8 8 9 9 8 7 6 5 5 5 4 4 4 4 3 3 4 5 5 6 6 7 8 8 9 8 8
18 19 22 20 19 20 19 18 15 14 15 16 16 15 13 12 10 10 10 9 9 8 7 6 6 5 4 4 3 3 2 2 2 3 4 4 5 6 6 7 7 7
15 17 23 23 22 23 22 19 17 15 14 16 17 16 16 15 14 13 12 11 11 10 9 8 6 6 6 6 5 5 5 5 6 6 6 5 5 5 5 6 7 7
18 19 24 24 22 22 21 19 17 16 15 16 17 18 18 17 16 15 14 13 12 10 8 7 6 6 5 4 4 4 5 7 8 9 10 9 9 8 7 7 7 8
22 23 24 23 20 20 19 18 18 16 15 17 18 20 20 18 17 16 16 15 13 10 8 6 4 2 2 2 3 4 6 9 11 12 12 12 12 11 11 10 11 10
23 24 24 23 22 21 19 18 19 17 15 17 19 20 20 19 18 17 16 14 12 10 8 7 4 0 2 2 4 6 8 12 13 13 14 14 14 13 13 13 13 14
23 23 24 24 24 24 22 20 18 17 16 17 19 20 20 19 18 18 17 13 12 10 9 9 7 4 5 6 7 8 10 13 13 13 14 15 15 15 16 16 16 16
24 23 23 23 25 27 26 22 19 18 18 19 20 21 20 19 18 19 18 14 10 8 7 7 8 6 8 10 10 8 11 13 12 12 12 14 15 16 17 17 17 17
21 20 22 23 24 25 25 23 22 22 21 20 21 21 20 20 19 19 20 14 5 8 11 11 12 12 11 11 11 11 14 15 14 14 13 13 14 15 15 15 16 17
17 18 21 24 25 24 24 24 24 24 23 22 22 21 20 19 18 20 23 18 16 22 23 19 19 20 19 18 16 14 15 15 14 13 12 12 13 13 13 14 15 16
11 14 17 21 24 26 23 22 23 25 26 25 25 25 24 22 23 27 28 24 24 28 27 23 21 20 22 23 18 14 11 10 10 10 11 12 12 12 12 13 14 14
6 9 12 15 18 19 18 19 23 27 28 29 30 29 28 27 29 31 31 28 25 24 25 25 24 22 22 21 15 9 7 6 7 8 9 8 8 8 8 9 10 11
5 7 10 12 13 15 15 19 25 29 29 29 29 29 29 30 31 31 30 27 23 23 25 26 24 22 20 16 11 8 6 4 4 4 3 2 1 1 1 2 4 5
3 7 10 11 12 14 16 19 24 27 27 27 27 28 29 31 32 31 28 24 22 23 26 25 23 20 17 14 12 10 7 6 6 5 5 5 4 4 4 4 3 3
4 4 9 12 15 15 17 20 24 25 23 22 24 27 30 31 30 27 25 23 22 22 23 22 20 18 17 17 14 11 9 8 6 6 6 6 6 6 6 5 5 5
12 6 4 11 17 19 19 21 24 25 23 19 20 24 27 28 27 25 23 23 22 21 20 19 17 18 20 18 14 11 10 8 6 6 6 6 6 6 6 6 6 6
16 13 7 5 11 18 22 23 24 25 23 21 21 21 21 23 23 22 21 21 21 20 19 19 20 22 21 17 14 12 10 9 7 7 6 6 6 6 6 6 6 6
16 15 11 7 6 10 16 19 20 21 21 21 21 18 17 21 22 20 19 18 17 18 20 22 23 23 19 16 14 13 11 10 9 7 7 6 5 5 6 6 6 5
15 15 14 10 7 6 7 9 13 15 16 18 20 19 20 22 23 20 18 17 17 18 21 22 21 20 17 15 14 13 12 11 9 8 7 6 6 6 7 7 7 6
Wind_Direction
166 160 154 149 148 152 156 161 163 161 151 142 140 145 144 136 133 144 151 156 160 156 151 145 140 137 134 129 125 125 126 125 125 128 131 133 134 134 132 130 131 128
166 159 153 150 150 154 161 176 182 177 164 149 149 158 155 143 141 149 154 160 164 160 153 145 145 145 138 134 132 129 129 129 130 133 134 133 131 130 129 129 130 127
148 144 144 141 143 149 160 183 194 195 184 163 165 183 179 164 153 149 146 147 147 143 138 135 138 140 135 131 129 127 128 127 130 132 130 128 128 129 130 129 129 126
135 141 147 136 133 139 158 181 190 201 204 183 175 198 200 190 174 158 148 140 136 129 123 123 123 122 119 119 119 121 123 124 126 127 125 124 124 127 128 128 128 126
165 172 169 150 145 146 169 211 204 207 213 200 185 198 204 200 191 174 159 142 133 129 121 117 118 117 114 111 115 116 117 119 122 123 122 120 121 123 125 126 127 126
192 189 177 166 162 156 177 229 232 219 215 213 201 196 201 202 199 189 177 163 150 141 129 120 120 121 115 109 113 115 116 119 120 121 123 122 123 124 124 128 131 130
194 191 184 180 178 170 185 216 236 234 220 219 214 205 205 207 205 200 192 184 175 165 153 146 142 137 130 119 116 115 118 124 127 128 130 130 133 134 134 137 138 140
192 192 190 193 198 197 202 216 239 246 228 222 220 214 211 212 212 207 202 200 196 192 187 185 185 178 166 152 145 137 130 134 141 145 145 142 142 146 150 150 148 151
197 199 196 199 208 216 222 226 237 246 237 226 223 221 215 213 215 212 206 206 207 207 206 205 206 207 206 202 197 198 209 222 218 200 190 180 168 164 167 168 168 171
211 211 203 204 212 223 232 233 235 247 247 235 228 227 224 216 212 212 211 209 210 212 211 209 210 215 222 228 232 240 250 257 263 259 251 244 231 214 206 202 196 195
212 211 209 210 216 226 235 239 240 245 247 244 236 230 229 224 215 212 211 210 210 207 201 198 200 209 221 235 247 261 279 285 282 275 269 265 261 255 248 243 234 225
209 211 215 219 226 232 237 239 239 240 244 246 241 233 230 226 220 215 212 211 209 200 190 181 174 198 234 254 274 287 304 308 301 290 282 275 270 268 263 260 257 251
212 214 220 230 238 242 246 245 239 239 242 243 241 236 229 223 220 217 213 208 199 188 183 179 169 74 351 325 304 300 310 315 306 295 288 282 278 277 275 271 267 262
220 222 229 239 241 243 252 257 252 247 245 242 237 232 228 222 214 206 198 189 178 168 169 184 201 251 302 309 310 307 315 317 305 291 282 278 276 276 276 276 272 269
230 232 238 244 243 243 249 258 261 258 253 242 231 229 227 216 203 193 182 170 162 164 174 200 224 249 282 293 293 300 316 316 300 286 276 269 268 268 268 270 269 269
238 237 240 243 243 242 246 250 251 253 250 238 228 227 219 202 194 191 183 177 200 235 226 224 234 247 259 264 265 284 305 300 285 278 272 264 265 265 264 266 265 266
238 235 235 238 239 240 242 241 238 235 233 229 223 215 205 202 208 208 206 216 242 246 237 224 225 236 233 225 240 275 291 283 272 269 266 261 262 261 262 264 265 267
234 229 230 233 237 238 235 229 223 218 216 218 215 207 207 218 227 225 226 236 242 237 230 218 214 221 216 216 239 269 273 264 261 259 259 260 261 264 269 273 274 275
235 226 226 229 232 232 224 212 209 208 208 212 212 211 214 221 224 223 225 233 235 224 215 213 215 216 215 223 242 250 235 242 254 251 254 260 264 272 279 282 284 284
238 230 229 229 228 223 214 206 205 205 208 213 215 216 218 218 217 218 222 229 230 215 208 212 216 213 216 222 219 200 192 197 201 203 201 193 207 303 319 313 308 299
235 229 230 228 225 220 213 206 205 208 214 218 219 220 219 216 213 216 223 229 224 213 210 211 210 208 209 201 184 173 163 148 138 121 106 103 94 82 73 57 38 14
1 240 230 226 223 222 218 214 214 217 219 219 221 222 219 215 214 220 228 225 216 210 208 206 206 203 193 180 170 163 156 146 131 113 107 101 97 92 84 75 64 48
7 353 265 232 227 227 228 226 226 229 232 230 231 229 224 219 220 224 224 216 210 206 201 198 196 188 179 173 167 160 158 154 139 128 120 106 98 91 81 76 70 58
358 355 343 283 241 233 233 234 235 237 239 235 229 228 232 232 227 218 212 209 207 199 187 179 177 176 175 173 166 161 162 160 152 144 133 117 100 88 78 75 69 62
346 346 342 334 299 250 234 234 238 239 236 228 219 215 225 232 227 217 207 201 195 184 172 167 170 173 173 171 167 166 168 164 158 153 143 129 111 99 94 90 82 76
330 334 335 331 313 271 226 213 222 227 224 216 212 213 218 222 220 211 194 176 169 170 167 167 170 171 170 170 172 173 172 167 160 155 149 142 135 128 119 113 107 102